Weather History for Winchester, TN

Change the Weather History Date:

Monday, January 21, 2013

  Actual Average (KTHA) Record (KTHA)
Temperature  
Mean Temperature 32 °F -  
Max Temperature 41 °F 46 °F 44 °F (2014)
Min Temperature 24 °F 25 °F 12 °F (2014)
Degree Days  
Heating Degree Days 32    
Moisture  
Dew Point 20 °F    
Average Humidity 65    
Maximum Humidity 100    
Minimum Humidity 36    
Precipitation  
Precipitation 0.00 in - - ()
Sea Level Pressure  
Sea Level Pressure 30.20 in    
Wind  
Wind Speed 3 mph (NW)    
Max Wind Speed 13 mph    
Max Gust Speed -    
Visibility 10 miles    
Events      
Averages and records for this station are not official NWS values.
T = Trace of Precipitation, MM = Missing Value Source: NWS Daily Summary

Daily Weather History Graph

Daily Weather History Graph

Search for Another Location

Airport:

Trip Planner

Search our weather history database for the weather conditions in past years. The results will help you decide how hot, cold, wet, or windy it might be!

Date:

Astronomy

Jan. 21, 2013 Rise Set
Actual Time 7:49 AM EST 6:01 PM EST
Civil Twilight 7:22 AM EST 6:29 PM EST
Nautical Twilight 6:51 AM EST 6:59 PM EST
Astronomical Twilight 6:21 AM EST 7:30 PM EST
Moon 1:42 PM EST (1/21) 3:17 AM EST (1/21)
Length of Visible Light 11h 06m
Length of Day
10h 11m
Waxing Gibbous, 75% of the Moon is Illuminated
Jan 21
Waxing Gibbous
Jan 26
Full
Feb 3
Last Quarter
Feb 10
New
Feb 17
First Quarter

Hourly Weather History & Observations

Time (EST) Temp. Windchill Dew Point Humidity Pressure Visibility Wind Dir Wind Speed Gust Speed Precip Events Conditions
12:15 AM 30.2 °F - 28.4 °F 93% 30.15 in 10.0 mi Calm Calm - N/A   Clear
12:35 AM 28.4 °F - 26.6 °F 93% 30.15 in 10.0 mi Calm Calm - N/A   Clear
12:55 AM 28.4 °F - 28.4 °F 100% 30.14 in 10.0 mi Calm Calm - N/A   Clear
1:35 AM 28.4 °F - 28.4 °F 100% 30.15 in 10.0 mi Calm Calm - N/A   Clear
1:55 AM 28.4 °F - 26.6 °F 93% 30.14 in 10.0 mi Calm Calm - N/A   Clear
2:15 AM 28.4 °F - 26.6 °F 93% 30.15 in 10.0 mi Calm Calm - N/A   Clear
2:35 AM 26.6 °F - 24.8 °F 93% 30.15 in 10.0 mi Calm Calm - N/A   Clear
2:55 AM 26.6 °F - 26.6 °F 100% 30.14 in 10.0 mi Calm Calm - N/A   Clear
3:15 AM 26.6 °F - 26.6 °F 100% 30.14 in 10.0 mi Calm Calm - N/A   Clear
3:35 AM 26.6 °F - 26.6 °F 100% 30.14 in 10.0 mi Calm Calm - N/A   Clear
3:55 AM 26.6 °F - 26.6 °F 100% 30.13 in 10.0 mi Calm Calm - N/A   Clear
4:15 AM 26.6 °F - 26.6 °F 100% 30.13 in 10.0 mi Calm Calm - N/A   Clear
4:35 AM 26.6 °F - 24.8 °F 93% 30.14 in 10.0 mi Calm Calm - N/A   Clear
4:55 AM 26.6 °F - 24.8 °F 93% 30.13 in 10.0 mi Calm Calm - N/A   Clear
5:15 AM 26.6 °F - 26.6 °F 100% 30.13 in 10.0 mi Calm Calm - N/A   Clear
5:35 AM 26.6 °F - 24.8 °F 93% 30.14 in 10.0 mi Calm Calm - N/A   Clear
5:55 AM 26.6 °F - 26.6 °F 100% 30.14 in 9.0 mi Calm Calm - N/A   Clear
6:15 AM 24.8 °F - 24.8 °F 100% 30.15 in 10.0 mi Calm Calm - N/A   Clear
6:35 AM 24.8 °F - 24.8 °F 100% 30.15 in 10.0 mi Calm Calm - N/A   Clear
6:55 AM 26.6 °F - 24.8 °F 93% 30.15 in 9.0 mi Calm Calm - N/A   Clear
7:15 AM 26.6 °F 22.6 °F 24.8 °F 93% 30.17 in 10.0 mi NW 3.5 mph - N/A   Clear
7:35 AM 26.6 °F 22.6 °F 24.8 °F 93% 30.17 in 10.0 mi West 3.5 mph - N/A   Clear
7:55 AM 26.6 °F 22.6 °F 24.8 °F 93% 30.18 in 10.0 mi WNW 3.5 mph - N/A   Clear
8:15 AM 26.6 °F - 23.0 °F 86% 30.19 in 10.0 mi Calm Calm - N/A   Clear
8:35 AM 28.4 °F 24.6 °F 23.0 °F 80% 30.20 in 10.0 mi WNW 3.5 mph - N/A   Clear
8:55 AM 30.2 °F 25.4 °F 21.2 °F 69% 30.21 in 10.0 mi NNW 4.6 mph - N/A   Clear
9:15 AM 30.2 °F 25.4 °F 21.2 °F 69% 30.23 in 10.0 mi NNW 4.6 mph - N/A   Clear
9:35 AM 30.2 °F 23.4 °F 21.2 °F 69% 30.24 in 10.0 mi NNW 6.9 mph - N/A   Clear
9:55 AM 33.8 °F 28.6 °F 21.2 °F 60% 30.25 in 10.0 mi North 5.8 mph - N/A   Mostly Cloudy
10:15 AM 33.8 °F 27.0 °F 21.2 °F 60% 30.25 in 10.0 mi North 8.1 mph - N/A   Scattered Clouds
10:35 AM 33.8 °F 27.7 °F 19.4 °F 56% 30.26 in 10.0 mi NNW 6.9 mph - N/A   Clear
10:55 AM 35.6 °F 28.0 °F 17.6 °F 48% 30.26 in 10.0 mi North 10.4 mph - N/A   Clear
11:15 AM 35.6 °F 28.6 °F 17.6 °F 48% 30.25 in 10.0 mi NW 9.2 mph - N/A   Clear
11:35 AM 35.6 °F 29.2 °F 17.6 °F 48% 30.25 in 10.0 mi North 8.1 mph - N/A   Clear
11:55 AM 37.4 °F 30.8 °F 19.4 °F 48% 30.25 in 10.0 mi North 9.2 mph - N/A   Clear
12:15 PM 37.4 °F 29.8 °F 14.0 °F 38% 30.24 in 10.0 mi NNW 11.5 mph - N/A   Clear
12:35 PM 39.2 °F 33.0 °F 14.0 °F 36% 30.23 in 10.0 mi NNW 9.2 mph - N/A   Clear
12:55 PM 39.2 °F 33.6 °F 14.0 °F 36% 30.21 in 10.0 mi NW 8.1 mph - N/A   Clear
1:15 PM 39.2 °F 32.5 °F 15.8 °F 39% 30.21 in 10.0 mi NNW 10.4 mph - N/A   Clear
1:35 PM 39.2 °F 32.5 °F 15.8 °F 39% 30.20 in 10.0 mi North 10.4 mph - N/A   Clear
1:55 PM 41.0 °F 34.7 °F 15.8 °F 36% 30.19 in 10.0 mi North 10.4 mph - N/A   Clear
2:15 PM 41.0 °F 36.4 °F 15.8 °F 36% 30.19 in 10.0 mi NNW 6.9 mph - N/A   Clear
2:35 PM 41.0 °F 36.4 °F 15.8 °F 36% 30.19 in 10.0 mi Variable 6.9 mph - N/A   Clear
2:55 PM 41.0 °F 36.4 °F 15.8 °F 36% 30.18 in 10.0 mi WNW 6.9 mph - N/A   Clear
3:15 PM 41.0 °F 35.2 °F 15.8 °F 36% 30.18 in 10.0 mi NW 9.2 mph - N/A   Clear
3:35 PM 39.2 °F 31.6 °F 15.8 °F 39% 30.19 in 10.0 mi NW 12.7 mph - N/A   Clear
3:55 PM 41.0 °F 34.3 °F 15.8 °F 36% 30.20 in 10.0 mi NNW 11.5 mph - N/A   Clear
4:15 PM 39.2 °F 31.6 °F 15.8 °F 39% 30.20 in 10.0 mi NNW 12.7 mph - N/A   Clear
4:35 PM 39.2 °F 31.6 °F 15.8 °F 39% 30.20 in 10.0 mi NW 12.7 mph - N/A   Clear
4:55 PM 39.2 °F 33.0 °F 15.8 °F 39% 30.20 in 10.0 mi WNW 9.2 mph - N/A   Clear
5:15 PM 39.2 °F 33.6 °F 15.8 °F 39% 30.20 in 10.0 mi WNW 8.1 mph - N/A   Clear
5:35 PM 37.4 °F 32.8 °F 15.8 °F 41% 30.19 in 10.0 mi NW 5.8 mph - N/A   Clear
5:55 PM 37.4 °F 33.8 °F 15.8 °F 41% 30.20 in 10.0 mi NNW 4.6 mph - N/A   Clear
6:15 PM 35.6 °F 30.7 °F 15.8 °F 44% 30.21 in 10.0 mi NNW 5.8 mph - N/A   Clear
6:35 PM 35.6 °F 32.8 °F 15.8 °F 44% 30.21 in 10.0 mi NNW 3.5 mph - N/A   Clear
6:55 PM 33.8 °F - 15.8 °F 48% 30.21 in 10.0 mi Calm Calm - N/A   Clear
7:15 PM 33.8 °F - 17.6 °F 52% 30.21 in 10.0 mi Calm Calm - N/A   Clear
7:35 PM 32.0 °F - 17.6 °F 55% 30.22 in 10.0 mi Calm Calm - N/A   Clear
7:55 PM 33.8 °F 30.8 °F 17.6 °F 52% 30.22 in 10.0 mi NNW 3.5 mph - N/A   Clear
8:15 PM 33.8 °F 28.6 °F 17.6 °F 52% 30.23 in 10.0 mi NNW 5.8 mph - N/A   Clear
8:35 PM 32.0 °F 24.8 °F 15.8 °F 51% 30.23 in 10.0 mi NW 8.1 mph - N/A   Clear
8:55 PM 32.0 °F 24.8 °F 15.8 °F 51% 30.23 in 10.0 mi NW 8.1 mph - N/A   Clear
9:15 PM 30.2 °F 24.3 °F 15.8 °F 55% 30.24 in 10.0 mi NW 5.8 mph - N/A   Clear
9:35 PM 30.2 °F 23.4 °F 15.8 °F 55% 30.24 in 10.0 mi NW 6.9 mph - N/A   Clear
9:55 PM 30.2 °F 24.3 °F 15.8 °F 55% 30.24 in 10.0 mi WNW 5.8 mph - N/A   Clear
10:15 PM 30.2 °F 24.3 °F 14.0 °F 51% 30.25 in 10.0 mi NW 5.8 mph - N/A   Clear
10:35 PM 28.4 °F 22.2 °F 14.0 °F 55% 30.25 in 10.0 mi NW 5.8 mph - N/A   Clear
10:55 PM 28.4 °F 22.2 °F 14.0 °F 55% 30.26 in 10.0 mi NW 5.8 mph - N/A   Clear
11:15 PM 28.4 °F 23.3 °F 15.8 °F 59% 30.26 in 10.0 mi NNW 4.6 mph - N/A   Clear
11:35 PM 26.6 °F 21.2 °F 14.0 °F 59% 30.26 in 10.0 mi NNW 4.6 mph - N/A   Clear
11:55 PM 26.6 °F 21.2 °F 15.8 °F 64% 30.25 in 10.0 mi NNW 4.6 mph - N/A   Clear